TimeAKDT,TemperatureF,Dew PointF,Humidity,Sea Level PressureIn,VisibilityMPH,Wind Direction,Wind SpeedMPH,Gust SpeedMPH,PrecipitationIn,Events,Conditions,WindDirDegrees,DateUTC
1:16 PM,15.8,3.2,58,29.28,10.0,ENE,8.1,-,N/A,,Mostly Cloudy,70,2012-10-14 21:16:00
1:36 PM,15.8,5.0,62,29.27,10.0,NE,8.1,-,N/A,,Mostly Cloudy,40,2012-10-14 21:36:00
1:56 PM,15.8,3.2,58,29.26,10.0,NE,4.6,-,N/A,,Scattered Clouds,50,2012-10-14 21:56:00
2:16 PM,15.8,5.0,62,29.26,10.0,NNE,5.8,-,N/A,,Mostly Cloudy,30,2012-10-14 22:16:00
3:16 PM,15.8,3.2,58,29.25,10.0,NNE,3.5,-,N/A,,Overcast,20,2012-10-14 23:16:00
3:36 PM,15.8,3.2,58,29.25,10.0,North,3.5,-,N/A,,Overcast,360,2012-10-14 23:36:00
3:56 PM,15.8,5.0,62,29.24,10.0,NNE,4.6,-,N/A,,Overcast,20,2012-10-14 23:56:00
4:16 PM,15.8,5.0,62,29.24,10.0,NNE,4.6,-,N/A,,Mostly Cloudy,20,2012-10-15 00:16:00
4:36 PM,15.8,5.0,62,29.24,10.0,North,4.6,-,N/A,,Scattered Clouds,10,2012-10-15 00:36:00
4:56 PM,15.8,6.8,68,29.23,10.0,North,4.6,-,N/A,,Clear,10,2012-10-15 00:56:00
5:16 PM,15.8,6.8,68,29.23,10.0,NNE,4.6,-,N/A,,Mostly Cloudy,30,2012-10-15 01:16:00
5:36 PM,15.8,6.8,68,29.23,10.0,NNE,4.6,-,N/A,,Overcast,30,2012-10-15 01:36:00
5:56 PM,15.8,6.8,68,29.23,10.0,NE,3.5,-,N/A,,Overcast,40,2012-10-15 01:56:00
6:16 PM,15.8,6.8,68,29.22,10.0,NE,4.6,-,N/A,,Overcast,50,2012-10-15 02:16:00
6:36 PM,15.8,6.8,68,29.22,10.0,ENE,4.6,-,N/A,,Mostly Cloudy,70,2012-10-15 02:36:00
6:56 PM,15.8,6.8,68,29.22,10.0,NE,3.5,-,N/A,,Mostly Cloudy,50,2012-10-15 02:56:00
7:16 PM,15.8,6.8,68,29.21,10.0,NE,5.8,-,N/A,,Overcast,50,2012-10-15 03:16:00
7:36 PM,15.8,6.8,68,29.21,10.0,ENE,4.6,-,N/A,,Overcast,60,2012-10-15 03:36:00
7:56 PM,15.8,6.8,68,29.21,10.0,East,4.6,-,N/A,,Overcast,90,2012-10-15 03:56:00
8:16 PM,15.8,6.8,68,29.21,10.0,ENE,5.8,-,N/A,,Overcast,60,2012-10-15 04:16:00
8:36 PM,15.8,6.8,68,29.21,10.0,East,4.6,-,N/A,,Overcast,80,2012-10-15 04:36:00
8:56 PM,15.8,6.8,68,29.21,10.0,East,4.6,-,N/A,,Overcast,80,2012-10-15 04:56:00
9:16 PM,15.8,6.8,68,29.21,10.0,East,5.8,-,N/A,,Overcast,80,2012-10-15 05:16:00
9:36 PM,15.8,8.6,73,29.21,10.0,ENE,3.5,-,N/A,,Overcast,60,2012-10-15 05:36:00
9:56 PM,15.8,8.6,73,29.21,10.0,Calm,Calm,-,N/A,,Overcast,0,2012-10-15 05:56:00
10:16 PM,15.8,10.4,79,29.21,10.0,ENE,3.5,-,N/A,,Overcast,70,2012-10-15 06:16:00
10:36 PM,15.8,8.6,73,29.22,10.0,NE,3.5,-,N/A,,Mostly Cloudy,50,2012-10-15 06:36:00
10:56 PM,15.8,8.6,73,29.22,10.0,ENE,4.6,-,N/A,,Overcast,60,2012-10-15 06:56:00
11:16 PM,15.8,8.6,73,29.22,10.0,NE,5.8,-,N/A,,Overcast,40,2012-10-15 07:16:00
11:36 PM,15.8,8.6,73,29.22,9.0,NE,5.8,-,N/A,,Overcast,50,2012-10-15 07:36:00
11:56 PM,14.0,8.6,79,29.22,5.0,NE,5.8,-,N/A,,Overcast,50,2012-10-15 07:56:00